CEB466 RPLL-RPVM

Flight info

Callsign CEB466
Flight time 0h 59m
Altitude 30000
Route IPATA2V IPATA W25 BATAY BATAY3P
Aircraft A20N/M-SDE2E3FGHIRWXY/LB1

Departure

Time 2026-05-07 14:02
Airport Ninoy Aquino International Airport (RPLL)

Arrival

Time 2026-05-07 15:02
Airport Mactan Cebu International Airport (RPVM)
Time Latitude Longitude Altitude Speed Heading
2026-05-07 12:52 14.51811 121.01380 42 ft 0 kts 44°
2026-05-07 13:44 14.51799 121.01368 42 ft 3 kts 44°
2026-05-07 13:44 14.51786 121.01354 40 ft 3 kts 44°
2026-05-07 13:44 14.51769 121.01344 42 ft 3 kts
2026-05-07 13:44 14.51750 121.01343 40 ft 3 kts
2026-05-07 13:45 14.51731 121.01341 39 ft 3 kts
2026-05-07 13:45 14.51712 121.01340 39 ft 3 kts 351°
2026-05-07 13:45 14.51696 121.01347 39 ft 0 kts 313°
2026-05-07 13:51 14.51704 121.01337 38 ft 7 kts 311°
2026-05-07 13:52 14.51759 121.01277 42 ft 14 kts 314°
2026-05-07 13:52 14.51818 121.01216 43 ft 13 kts 315°
2026-05-07 13:52 14.51884 121.01148 45 ft 16 kts 314°
2026-05-07 13:52 14.51964 121.01064 46 ft 18 kts 316°
2026-05-07 13:53 14.52042 121.00985 45 ft 17 kts 314°
2026-05-07 13:53 14.52131 121.00894 49 ft 18 kts 315°
2026-05-07 13:53 14.52235 121.00785 50 ft 19 kts 316°
2026-05-07 13:53 14.52332 121.00687 53 ft 20 kts 314°
2026-05-07 13:54 14.52416 121.00597 55 ft 17 kts 314°
2026-05-07 13:54 14.52489 121.00521 56 ft 14 kts 314°
2026-05-07 13:54 14.52537 121.00467 53 ft 3 kts 306°
2026-05-07 13:54 14.52541 121.00459 53 ft 0 kts 292°
2026-05-07 13:55 14.52545 121.00439 54 ft 6 kts 275°
2026-05-07 13:55 14.52543 121.00375 57 ft 14 kts 267°
2026-05-07 13:55 14.52541 121.00303 57 ft 11 kts 272°
2026-05-07 13:55 14.52494 121.00275 54 ft 14 kts 151°
2026-05-07 13:56 14.52470 121.00294 57 ft 0 kts 135°
2026-05-07 13:56 14.52460 121.00305 57 ft 2 kts 135°
2026-05-07 13:57 14.52457 121.00308 55 ft 0 kts 135°
2026-05-07 13:57 14.52449 121.00316 57 ft 5 kts 135°
2026-05-07 13:57 14.52446 121.00319 54 ft 0 kts 134°
2026-05-07 13:58 14.52444 121.00322 55 ft 1 kts 134°
2026-05-07 13:59 14.52443 121.00322 55 ft 0 kts 134°
2026-05-07 13:59 14.52441 121.00325 56 ft 1 kts 134°
2026-05-07 13:59 14.52436 121.00330 57 ft 1 kts 134°
2026-05-07 13:59 14.52429 121.00337 54 ft 1 kts 134°
2026-05-07 14:00 14.52424 121.00343 57 ft 2 kts 134°
2026-05-07 14:00 14.52415 121.00352 55 ft 0 kts 134°
2026-05-07 14:01 14.52414 121.00353 55 ft 3 kts 134°
2026-05-07 14:01 14.52303 121.00471 54 ft 55 kts 134°
2026-05-07 14:01 14.51817 121.00971 48 ft 142 kts 135°
2026-05-07 14:02 14.50981 121.01818 289 ft 191 kts 135°
2026-05-07 14:02 14.49911 121.02887 634 ft 232 kts 135°
2026-05-07 14:02 14.48737 121.04111 1299 ft 242 kts 133°
2026-05-07 14:02 14.47552 121.05350 2188 ft 245 kts 131°
2026-05-07 14:03 14.46345 121.06609 2730 ft 256 kts 131°
2026-05-07 14:03 14.45084 121.07920 2958 ft 258 kts 132°
2026-05-07 14:03 14.43812 121.09246 3141 ft 265 kts 130°
2026-05-07 14:03 14.42630 121.10800 3438 ft 286 kts 122°
2026-05-07 14:04 14.41518 121.12548 4007 ft 296 kts 121°
2026-05-07 14:04 14.40397 121.14362 4667 ft 303 kts 121°
2026-05-07 14:04 14.39255 121.16213 5336 ft 309 kts 121°
2026-05-07 14:04 14.38092 121.18094 6066 ft 312 kts 121°
2026-05-07 14:05 14.36912 121.19995 6766 ft 316 kts 121°
2026-05-07 14:05 14.35718 121.21917 7486 ft 319 kts 121°
2026-05-07 14:05 14.34509 121.23862 8271 ft 322 kts 121°
2026-05-07 14:05 14.33293 121.25817 8981 ft 326 kts 121°
2026-05-07 14:06 14.32059 121.27799 9713 ft 330 kts 121°
2026-05-07 14:06 14.30814 121.29799 10344 ft 333 kts 121°
2026-05-07 14:06 14.29556 121.31819 10963 ft 337 kts 121°
2026-05-07 14:06 14.28284 121.33862 11591 ft 340 kts 121°
2026-05-07 14:07 14.26999 121.35924 12207 ft 343 kts 122°
2026-05-07 14:07 14.25721 121.37975 12799 ft 346 kts 122°
2026-05-07 14:07 14.24415 121.40071 13411 ft 349 kts 122°
2026-05-07 14:07 14.23093 121.42188 13991 ft 352 kts 122°
2026-05-07 14:08 14.21760 121.44322 14519 ft 356 kts 122°
2026-05-07 14:08 14.20417 121.46473 15073 ft 358 kts 122°
2026-05-07 14:08 14.19061 121.48643 15634 ft 361 kts 122°
2026-05-07 14:08 14.17694 121.50832 16161 ft 364 kts 121°
2026-05-07 14:09 14.16312 121.53041 16692 ft 368 kts 122°
2026-05-07 14:09 14.14924 121.55263 17200 ft 371 kts 121°
2026-05-07 14:09 14.13512 121.57521 17687 ft 375 kts 122°
2026-05-07 14:09 14.12097 121.59782 18027 ft 377 kts 122°
2026-05-07 14:10 14.10657 121.62019 18440 ft 382 kts 125°
2026-05-07 14:10 14.08899 121.64137 18859 ft 385 kts 135°
2026-05-07 14:10 14.06868 121.65903 19274 ft 389 kts 141°
2026-05-07 14:10 14.04695 121.67580 19673 ft 391 kts 142°
2026-05-07 14:11 14.02493 121.69245 20065 ft 394 kts 142°
2026-05-07 14:11 14.00278 121.70920 20455 ft 396 kts 142°
2026-05-07 14:11 13.98045 121.72614 20839 ft 399 kts 142°
2026-05-07 14:11 13.95801 121.74320 21251 ft 402 kts 142°
2026-05-07 14:12 13.93547 121.76035 21672 ft 404 kts 142°
2026-05-07 14:12 13.91297 121.77748 22076 ft 407 kts 142°
2026-05-07 14:12 13.88984 121.79509 22513 ft 410 kts 142°
2026-05-07 14:12 13.86709 121.81241 22930 ft 413 kts 142°
2026-05-07 14:13 13.84385 121.83003 23345 ft 416 kts 142°
2026-05-07 14:13 13.82041 121.84774 23705 ft 419 kts 142°
2026-05-07 14:13 13.79678 121.86557 24068 ft 422 kts 142°
2026-05-07 14:13 13.77310 121.88342 24502 ft 422 kts 142°
2026-05-07 14:14 13.74937 121.90131 24951 ft 423 kts 143°
2026-05-07 14:14 13.72564 121.91920 25404 ft 423 kts 143°
2026-05-07 14:14 13.70212 121.93692 25868 ft 423 kts 143°
2026-05-07 14:14 13.67837 121.95482 26335 ft 423 kts 143°
2026-05-07 14:15 13.65469 121.97267 26814 ft 422 kts 143°
2026-05-07 14:15 13.63099 121.99053 27298 ft 421 kts 143°
2026-05-07 14:15 13.60743 122.00828 27792 ft 420 kts 144°
2026-05-07 14:15 13.58388 122.02602 28299 ft 418 kts 144°
2026-05-07 14:16 13.56048 122.04364 28777 ft 417 kts 144°
2026-05-07 14:16 13.53691 122.06138 28973 ft 424 kts 144°
2026-05-07 14:16 13.51290 122.07945 29097 ft 431 kts 144°
2026-05-07 14:16 13.48848 122.09782 29229 ft 438 kts 144°
2026-05-07 14:17 13.46371 122.11644 29465 ft 443 kts 144°
2026-05-07 14:17 13.43879 122.13519 29755 ft 445 kts 144°
2026-05-07 14:17 13.41370 122.15406 30035 ft 448 kts 144°
2026-05-07 14:17 13.38848 122.17302 30282 ft 450 kts 144°
2026-05-07 14:18 13.36321 122.19201 30529 ft 451 kts 144°
2026-05-07 14:18 13.33824 122.21077 30773 ft 450 kts 144°
2026-05-07 14:18 13.31298 122.22974 30890 ft 450 kts 144°
2026-05-07 14:19 13.26206 122.26796 30899 ft 458 kts 144°
2026-05-07 14:19 13.21021 122.30686 30903 ft 462 kts 144°
2026-05-07 14:20 13.15829 122.34581 30902 ft 462 kts 145°
2026-05-07 14:20 13.10671 122.38447 30900 ft 462 kts 145°
2026-05-07 14:21 13.05476 122.42339 30900 ft 462 kts 145°
2026-05-07 14:21 13.00282 122.46228 30901 ft 462 kts 145°
2026-05-07 14:22 12.95087 122.50116 30898 ft 462 kts 145°
2026-05-07 14:22 12.89888 122.54004 30897 ft 462 kts 145°
2026-05-07 14:23 12.84718 122.57870 30898 ft 463 kts 145°
2026-05-07 14:23 12.79500 122.61769 30898 ft 463 kts 145°
2026-05-07 14:24 12.74286 122.65662 30898 ft 463 kts 145°
2026-05-07 14:24 12.69098 122.69535 30902 ft 464 kts 145°
2026-05-07 14:25 12.63879 122.73429 30899 ft 464 kts 145°
2026-05-07 14:25 12.58646 122.77331 30898 ft 465 kts 144°
2026-05-07 14:26 12.53443 122.81207 30899 ft 465 kts 145°
2026-05-07 14:26 12.48215 122.85102 30902 ft 465 kts 145°
2026-05-07 14:27 12.42975 122.89001 30897 ft 465 kts 145°
2026-05-07 14:27 12.37740 122.92898 30897 ft 465 kts 145°
2026-05-07 14:28 12.32510 122.96789 30896 ft 464 kts 145°
2026-05-07 14:28 12.29936 122.98703 30774 ft 461 kts 145°
2026-05-07 14:28 12.27347 123.00627 30098 ft 460 kts 145°
2026-05-07 14:28 12.24749 123.02558 29355 ft 460 kts 144°
2026-05-07 14:29 12.22174 123.04470 28852 ft 454 kts 144°
2026-05-07 14:29 12.19632 123.06359 28382 ft 447 kts 144°
2026-05-07 14:29 12.17134 123.08214 27990 ft 439 kts 144°
2026-05-07 14:29 12.14677 123.10038 27524 ft 433 kts 144°
2026-05-07 14:30 12.12254 123.11836 27028 ft 429 kts 143°
2026-05-07 14:30 12.09850 123.13620 26523 ft 425 kts 143°
2026-05-07 14:30 12.07466 123.15388 26023 ft 421 kts 143°
2026-05-07 14:30 12.05107 123.17139 25510 ft 417 kts 143°
2026-05-07 14:31 12.02764 123.18876 25001 ft 414 kts 143°
2026-05-07 14:31 12.00439 123.20600 24501 ft 411 kts 143°
2026-05-07 14:31 11.98127 123.22313 24016 ft 408 kts 143°
2026-05-07 14:31 11.95870 123.23986 23609 ft 404 kts 142°
2026-05-07 14:32 11.93593 123.25673 23198 ft 403 kts 142°
2026-05-07 14:32 11.91322 123.27356 22756 ft 402 kts 142°
2026-05-07 14:32 11.89062 123.29029 22332 ft 400 kts 142°
2026-05-07 14:32 11.86818 123.30691 21910 ft 397 kts 142°
2026-05-07 14:33 11.84587 123.32343 21497 ft 395 kts 142°
2026-05-07 14:33 11.82371 123.33983 21089 ft 392 kts 142°
2026-05-07 14:33 11.80167 123.35614 20684 ft 389 kts 142°
2026-05-07 14:33 11.77984 123.37229 20291 ft 387 kts 142°
2026-05-07 14:34 11.75813 123.38834 19978 ft 384 kts 142°
2026-05-07 14:34 11.73654 123.40431 19561 ft 382 kts 142°
2026-05-07 14:34 11.71536 123.41997 19073 ft 378 kts 142°
2026-05-07 14:34 11.69420 123.43561 18600 ft 374 kts 141°
2026-05-07 14:35 11.67322 123.45112 18113 ft 370 kts 141°
2026-05-07 14:35 11.65245 123.46646 17646 ft 366 kts 141°
2026-05-07 14:35 11.63178 123.48174 17343 ft 366 kts 141°
2026-05-07 14:35 11.61116 123.49699 17044 ft 366 kts 141°
2026-05-07 14:36 11.59057 123.51219 16750 ft 365 kts 141°
2026-05-07 14:36 11.57034 123.52714 16459 ft 363 kts 141°
2026-05-07 14:36 11.54959 123.54245 16164 ft 361 kts 141°
2026-05-07 14:36 11.52930 123.55743 15882 ft 360 kts 141°
2026-05-07 14:37 11.50905 123.57238 15598 ft 359 kts 141°
2026-05-07 14:37 11.46904 123.60190 15041 ft 356 kts 141°
2026-05-07 14:37 11.44901 123.61667 14764 ft 354 kts 141°
2026-05-07 14:38 11.42906 123.63138 14484 ft 353 kts 141°
2026-05-07 14:38 11.40924 123.64600 14217 ft 351 kts 141°
2026-05-07 14:38 11.38935 123.66067 13950 ft 350 kts 141°
2026-05-07 14:38 11.36959 123.67523 13678 ft 349 kts 141°
2026-05-07 14:39 11.35023 123.68950 13386 ft 347 kts 141°
2026-05-07 14:39 11.33070 123.70389 13047 ft 345 kts 141°
2026-05-07 14:39 11.31129 123.71819 12726 ft 343 kts 141°
2026-05-07 14:39 11.29204 123.73237 12405 ft 341 kts 141°
2026-05-07 14:40 11.27286 123.74650 12091 ft 339 kts 141°
2026-05-07 14:40 11.25388 123.76047 11776 ft 337 kts 141°
2026-05-07 14:40 11.23488 123.77446 11462 ft 335 kts 141°
2026-05-07 14:40 11.21603 123.78834 11160 ft 333 kts 141°
2026-05-07 14:41 11.19732 123.80210 10855 ft 331 kts 141°
2026-05-07 14:41 11.17868 123.81583 10556 ft 329 kts 141°
2026-05-07 14:41 11.15936 123.82839 10246 ft 330 kts 150°
2026-05-07 14:41 11.13801 123.83615 9964 ft 333 kts 165°
2026-05-07 14:42 11.11474 123.83741 9665 ft 337 kts 182°
2026-05-07 14:42 11.09164 123.83280 9336 ft 338 kts 191°
2026-05-07 14:42 11.06896 123.82649 9015 ft 337 kts 192°
2026-05-07 14:42 11.04658 123.82001 8698 ft 329 kts 192°
2026-05-07 14:43 11.02498 123.81377 8441 ft 317 kts 192°
2026-05-07 14:43 11.00391 123.80777 8087 ft 310 kts 192°
2026-05-07 14:43 10.98360 123.80203 7735 ft 304 kts 192°
2026-05-07 14:43 10.96343 123.79636 7380 ft 298 kts 192°
2026-05-07 14:44 10.94365 123.79082 7032 ft 293 kts 192°
2026-05-07 14:44 10.92408 123.78535 6689 ft 289 kts 192°
2026-05-07 14:44 10.90478 123.77997 6344 ft 287 kts 192°
2026-05-07 14:44 10.88555 123.77461 5981 ft 286 kts 191°
2026-05-07 14:45 10.86645 123.76928 5617 ft 284 kts 191°
2026-05-07 14:45 10.84743 123.76397 5256 ft 282 kts 191°
2026-05-07 14:45 10.82852 123.75870 4900 ft 281 kts 191°
2026-05-07 14:45 10.80967 123.75344 4541 ft 280 kts 191°
2026-05-07 14:46 10.79099 123.74824 4177 ft 278 kts 191°
2026-05-07 14:46 10.77244 123.74307 3995 ft 275 kts 191°
2026-05-07 14:46 10.75389 123.73790 3965 ft 276 kts 191°
2026-05-07 14:46 10.73537 123.73274 3965 ft 276 kts 191°
2026-05-07 14:47 10.71712 123.72765 3963 ft 275 kts 191°
2026-05-07 14:47 10.69862 123.72251 3967 ft 276 kts 192°
2026-05-07 14:47 10.68008 123.71734 3966 ft 276 kts 191°
2026-05-07 14:47 10.66156 123.71218 3963 ft 276 kts 191°
2026-05-07 14:48 10.64305 123.70702 3968 ft 275 kts 191°
2026-05-07 14:48 10.62458 123.70188 3966 ft 275 kts 191°
2026-05-07 14:48 10.60606 123.69673 3967 ft 276 kts 191°
2026-05-07 14:48 10.58758 123.69158 3966 ft 276 kts 191°
2026-05-07 14:49 10.57532 123.68816 3969 ft 276 kts 191°
2026-05-07 14:49 10.55682 123.68301 3969 ft 276 kts 191°
2026-05-07 14:49 10.53825 123.67784 3968 ft 276 kts 191°
2026-05-07 14:49 10.51969 123.67268 3969 ft 276 kts 192°
2026-05-07 14:50 10.50116 123.66752 3964 ft 277 kts 191°
2026-05-07 14:50 10.48255 123.66234 3973 ft 276 kts 191°
2026-05-07 14:50 10.46398 123.65747 3973 ft 272 kts 188°
2026-05-07 14:50 10.44041 123.65394 3973 ft 246 kts 179°
2026-05-07 14:51 10.42908 123.65363 3978 ft 238 kts 174°
2026-05-07 14:51 10.41266 123.65485 3975 ft 235 kts 167°
2026-05-07 14:51 10.39682 123.65796 3971 ft 234 kts 161°
2026-05-07 14:51 10.38131 123.66293 3978 ft 233 kts 154°
2026-05-07 14:52 10.36658 123.66962 3980 ft 231 kts 148°
2026-05-07 14:52 10.35269 123.67771 3985 ft 230 kts 145°
2026-05-07 14:52 10.33893 123.68590 3979 ft 227 kts 145°
2026-05-07 14:52 10.32552 123.69382 3986 ft 220 kts 146°
2026-05-07 14:53 10.31239 123.70155 3828 ft 217 kts 145°
2026-05-07 14:53 10.29929 123.70925 3512 ft 217 kts 145°
2026-05-07 14:53 10.28614 123.71698 3209 ft 219 kts 146°
2026-05-07 14:53 10.27309 123.72468 3046 ft 214 kts 145°
2026-05-07 14:54 10.26025 123.73235 3004 ft 214 kts 145°
2026-05-07 14:54 10.24761 123.74004 2983 ft 215 kts 145°
2026-05-07 14:54 10.23475 123.74783 2982 ft 216 kts 145°
2026-05-07 14:54 10.22183 123.75567 2989 ft 216 kts 142°
2026-05-07 14:55 10.21021 123.76460 2989 ft 200 kts 137°
2026-05-07 14:55 10.19994 123.77319 2994 ft 185 kts 136°
2026-05-07 14:55 10.19007 123.78146 2996 ft 183 kts 136°
2026-05-07 14:55 10.18022 123.78972 2988 ft 183 kts 136°
2026-05-07 14:56 10.17103 123.79771 2954 ft 166 kts 128°
2026-05-07 14:56 10.16577 123.80729 3014 ft 153 kts 100°
2026-05-07 14:56 10.16606 123.81757 3002 ft 147 kts 74°
2026-05-07 14:56 10.17047 123.82736 2844 ft 153 kts 64°
2026-05-07 14:57 10.17508 123.83728 2663 ft 157 kts 69°
2026-05-07 14:57 10.18038 123.84674 2554 ft 156 kts 56°
2026-05-07 14:57 10.18717 123.85546 2571 ft 160 kts 54°
2026-05-07 14:57 10.19470 123.86387 2580 ft 162 kts 51°
2026-05-07 14:58 10.20238 123.87221 2547 ft 157 kts 50°
2026-05-07 14:58 10.20986 123.88002 2461 ft 153 kts 49°
2026-05-07 14:58 10.21720 123.88755 2184 ft 147 kts 47°
2026-05-07 14:58 10.22432 123.89480 1921 ft 141 kts 48°
2026-05-07 14:59 10.23100 123.90235 1684 ft 155 kts 50°
2026-05-07 14:59 10.23887 123.91094 1570 ft 170 kts 47°
2026-05-07 14:59 10.24664 123.91897 1446 ft 151 kts 46°
2026-05-07 14:59 10.25409 123.92626 1300 ft 149 kts 46°
2026-05-07 15:00 10.26150 123.93367 1144 ft 147 kts 47°
2026-05-07 15:00 10.26873 123.94081 967 ft 144 kts 44°
2026-05-07 15:00 10.27589 123.94781 781 ft 140 kts 46°
2026-05-07 15:00 10.28265 123.95486 611 ft 147 kts 44°
2026-05-07 15:01 10.29012 123.96216 367 ft 145 kts 44°
2026-05-07 15:01 10.29706 123.96904 162 ft 134 kts 44°
2026-05-07 15:01 10.30338 123.97535 41 ft 121 kts 44°
2026-05-07 15:01 10.30811 123.97999 36 ft 75 kts 43°
2026-05-07 15:02 10.31100 123.98270 39 ft 35 kts 32°
2026-05-07 15:02 10.31246 123.98336 41 ft 0 kts 18°
2026-05-07 15:03 10.31248 123.98336 41 ft 1 kts 18°
2026-05-07 15:04 10.31253 123.98338 41 ft 1 kts 18°
2026-05-07 15:04 10.31282 123.98348 41 ft 9 kts 18°
2026-05-07 15:04 10.31347 123.98352 41 ft 9 kts 347°
2026-05-07 15:04 10.31408 123.98305 41 ft 11 kts 315°
2026-05-07 15:05 10.31467 123.98246 41 ft 11 kts 316°
2026-05-07 15:05 10.31516 123.98198 41 ft 9 kts 315°
2026-05-07 15:05 10.31552 123.98158 41 ft 3 kts 305°
2026-05-07 15:05 10.31565 123.98115 41 ft 8 kts 256°
2026-05-07 15:06 10.31584 123.98038 40 ft 12 kts 310°
2026-05-07 15:06 10.31603 123.98020 40 ft 0 kts 318°